#timestamp,LO_Frequency,Hit,StdDev 
1632409215.3,286046998.3,N
1632409235.1,286046998.7,N
1632409255.9,286046998.4,N
1632409275.7,286046999.4,N
1632409295.5,286046999.3,N
1632409315.4,286046998.2,N
1632409335.2,286047002.6,N
1632409355.0,286046999.9,N
1632409355.9,286046999.9,N
1632409375.8,286046999.8,N
1632409395.6,286046999.8,N
1632409415.5,286047000.2,N
1632409435.3,286047002.5,N
1632409455.1,286047002.2,N
1632409475.9,286047001.4,N
1632409495.7,286047004.3,N
1632409515.5,286047003.9,N
1632409535.4,286047001.7,N
1632409555.2,286047002.4,N
1632409575.1,286047002.0,N
1632409576.0,286047002.0,N
1632409595.8,286047000.2,N
1632409615.6,286047001.0,N
1632409635.5,286047000.0,N
1632409655.3,286047001.2,N
1632409675.2,286046998.2,N
1632409695.9,286047000.6,N
1632409715.7,286046999.8,N
1632409735.6,286047002.3,N
1632409755.4,286047001.4,N
1632409775.2,286047003.6,N
1632409795.1,286047005.9,Y
1632409796.0,286047005.9,P
1632409815.8,286047004.4,N
1632409835.7,286047001.3,N
1632409855.5,286047003.9,N
1632409875.3,286047001.4,N
1632409895.2,286047002.1,N
1632409915.0,286047002.2,N
1632409915.9,286047002.2,N
1632409935.8,286046999.8,N
1632409955.6,286047000.5,N
1632409975.4,286047000.5,N
1632409995.3,286046998.2,N
1632410015.1,286046998.9,N
1632410035.9,286046996.7,N
1632410055.7,286046997.0,N
1632410075.5,286046996.8,N
1632410095.4,286046999.1,N
1632410115.2,286046998.5,N
1632410135.1,286046998.2,N
1632410136.0,286046998.2,N
1632410155.8,286047000.1,N
1632410175.7,286047003.7,N
1632410195.5,286047003.5,N
1632410215.3,286047004.2,N
1632410235.2,286047001.5,N
1632410255.0,286047003.6,N
1632410255.9,286047003.6,N
1632410275.7,286047003.0,N
1632410295.6,286047003.3,N
1632410315.4,286047003.3,N
1632410335.3,286047004.0,N
1632410355.1,286047001.8,N
1632410375.8,286047001.8,N
1632410395.7,286047002.6,N
1632410415.5,286047002.0,N
1632410435.4,286047002.6,N
1632410455.2,286047002.0,N
1632410475.0,286046999.9,N
1632410475.9,286046999.9,N
1632410495.8,286046999.7,N
1632410515.6,286047000.7,N
1632410535.4,286047000.2,N
1632410555.3,286046999.9,N
1632410575.1,286047001.2,N
1632410595.9,286047000.9,N
1632410615.7,286046998.7,N
1632410635.5,286047000.4,N
1632410655.4,286047002.5,N
1632410675.2,286047001.6,N
1632410695.0,286047001.8,N
1632410696.0,286047001.8,N
1632410715.8,286047002.5,N
1632410735.6,286047001.9,N
1632410755.5,286047002.6,N
1632410775.3,286047002.5,N
1632410795.1,286046999.7,N
1632410815.9,286047000.4,N
1632410835.7,286047000.3,N
1632410855.6,286047000.2,N
1632410875.4,286047000.3,N
1632410895.2,286047000.3,N
1632410915.1,286047001.1,N
1632410916.0,286047001.1,N
1632410935.8,286046998.1,N
1632410955.6,286047001.2,N
1632410975.5,286047001.2,N
1632410995.3,286046999.8,N
1632411015.2,286047000.8,N
1632411035.9,286047000.8,N
1632411055.7,286047000.3,N
1632411075.6,286047000.2,N
1632411095.4,286047000.8,N
1632411115.3,286047000.3,N
1632411135.1,286046999.9,N
1632411136.0,286046999.9,N
1632411155.8,286046998.7,N
1632411175.7,286047000.5,N
1632411195.5,286047000.4,N
1632411215.3,286046998.2,N
1632411235.2,286047000.9,N
1632411255.0,286047002.6,N
1632411255.9,286047002.6,N
1632411275.8,286046999.9,N
1632411295.6,286047000.6,N
1632411315.4,286046998.9,N
1632411335.3,286046996.9,Y
1632411355.1,286046997.8,P
1632411375.9,286046999.2,N
1632411395.7,286046996.9,P
1632411415.5,286046997.0,N
1632411435.4,286046996.7,N
1632411455.2,286046997.3,N
1632411475.0,286046996.6,N
1632411475.9,286046996.6,N
1632411495.8,286046999.6,N
1632411515.6,286046998.6,N
1632411535.5,286046998.8,N
1632411555.3,286047001.1,N
1632411575.1,286047001.1,N
1632411595.9,286046999.5,N
1632411615.7,286046997.1,N
1632411635.5,286046999.6,N
1632411655.4,286046997.0,N
1632411675.2,286046996.7,N
1632411695.1,286046999.5,N
1632411696.0,286046999.5,N
1632411715.8,286046996.8,N
1632411735.6,286046997.9,N
1632411755.5,286046997.9,N
1632411775.3,286046996.7,N
1632411795.2,286046997.4,N
1632411815.9,286046997.8,N
1632411835.7,286046997.3,N
1632411855.6,286046996.8,N
1632411875.4,286046997.7,N
1632411895.2,286046993.3,Y
1632411915.1,286046999.1,P
1632411916.0,286046999.1,N
1632411935.8,286046999.5,N
1632411955.7,286046996.9,Y
1632411975.5,286047001.2,P
1632411995.3,286047000.5,N
1632412015.2,286047000.0,N
1632412035.0,286046998.2,N
1632412035.9,286046998.2,N
1632412055.8,286047000.9,N
1632412075.6,286047000.1,N
1632412095.4,286046998.5,N
1632412115.3,286047000.7,N
1632412135.1,286047000.1,N
1632412155.9,286046998.5,N
1632412175.7,286046999.4,N
1632412195.5,286047000.7,N
1632412215.4,286046998.1,N
1632412235.2,286046998.7,N
1632412255.0,286046998.6,N
1632412255.9,286046998.6,N
1632412275.8,286046999.2,N
1632412295.6,286046996.5,Y
1632412315.5,286046998.4,P
1632412335.3,286046999.0,N
1632412355.1,286046998.8,N
1632412375.9,286046999.1,N
1632412395.7,286046999.6,N
1632412415.5,286046999.2,N
1632412435.4,286046999.3,N
1632412455.2,286046998.7,Y
1632412475.1,286047002.3,P
1632412476.0,286047002.3,N
1632412495.8,286047002.7,N
1632412515.6,286046998.2,N
1632412535.5,286047000.4,N
1632412555.3,286047002.1,N
1632412575.2,286047002.8,N
1632412595.9,286046998.7,N
1632412615.7,286046996.5,N
1632412635.6,286046999.1,N
1632412655.4,286046998.5,N
1632412675.2,286046996.6,N
1632412695.1,286046996.5,N
1632412696.0,286046996.5,N
1632412715.8,286046999.6,N
1632412735.7,286046996.9,N
1632412755.5,286046999.0,N
1632412775.3,286046998.2,N
1632412795.2,286047000.8,N
